Time,TemperatureF,DewpointF,PressureIn,WindDirection,WindDirectionDegrees,WindSpeedMPH,WindSpeedGustMPH,Humidity,HourlyPrecipIn,Conditions,Clouds,dailyrainin,SoftwareType,DateUTC
2013-01-28 00:16:00,24.2,11.6,30.38,WNW,303,3.0,7.0,58,0.00,,---,0.00,VWS V14.01,2013-01-28 05:16:00,
2013-01-28 00:31:00,23.4,11.9,30.37,West,277,4.0,8.0,61,0.00,,---,0.00,VWS V14.01,2013-01-28 05:31:00,
2013-01-28 00:46:00,22.9,10.3,30.38,West,276,6.0,7.0,58,0.00,,---,0.00,VWS V14.01,2013-01-28 05:46:00,
2013-01-28 01:01:00,22.5,9.6,30.37,WNW,283,4.0,7.0,57,0.00,,---,0.00,VWS V14.01,2013-01-28 06:01:00,
2013-01-28 01:16:00,22.1,10.4,30.37,West,268,3.0,7.0,60,0.00,,---,0.00,VWS V14.01,2013-01-28 06:16:00,
2013-01-28 01:31:00,22.2,12.6,30.37,West,267,5.0,7.0,66,0.00,,---,0.00,VWS V14.01,2013-01-28 06:31:00,
2013-01-28 01:46:00,22.2,12.6,30.36,WNW,283,3.0,7.0,66,0.00,,---,0.00,VWS V14.01,2013-01-28 06:46:00,
2013-01-28 02:01:00,21.7,12.1,30.37,WNW,284,4.0,7.0,66,0.00,,---,0.00,VWS V14.01,2013-01-28 07:01:00,
2013-01-28 02:16:00,21.3,10.7,30.37,West,279,2.0,6.0,63,0.00,,---,0.00,VWS V14.01,2013-01-28 07:16:00,
2013-01-28 02:31:00,20.7,10.1,30.37,West,279,0.0,3.0,63,0.00,,---,0.00,VWS V14.01,2013-01-28 07:31:00,
2013-01-28 02:46:00,20.1,10.6,30.37,West,279,0.0,2.0,66,0.00,,---,0.00,VWS V14.01,2013-01-28 07:46:00,
2013-01-28 03:01:00,20.2,11.7,30.37,West,279,3.0,5.0,69,0.00,,---,0.00,VWS V14.01,2013-01-28 08:01:00,
2013-01-28 03:16:00,20.2,12.3,30.37,WNW,290,2.0,5.0,71,0.00,,---,0.00,VWS V14.01,2013-01-28 08:16:00,
2013-01-28 03:31:00,20.4,12.2,30.36,West,281,3.0,5.0,70,0.00,,---,0.00,VWS V14.01,2013-01-28 08:31:00,
2013-01-28 03:46:00,20.5,12.3,30.36,West,276,2.0,5.0,70,0.00,,---,0.00,VWS V14.01,2013-01-28 08:46:00,
2013-01-28 04:01:00,20.4,12.5,30.37,West,274,4.0,6.0,71,0.00,,---,0.00,VWS V14.01,2013-01-28 09:01:00,
2013-01-28 04:16:00,20.6,12.7,30.37,West,280,2.0,7.0,71,0.00,,---,0.00,VWS V14.01,2013-01-28 09:16:00,
2013-01-28 04:31:00,20.4,12.8,30.35,West,280,0.0,3.0,72,0.00,,---,0.00,VWS V14.01,2013-01-28 09:31:00,
2013-01-28 04:46:00,20.2,13.2,30.35,West,277,0.0,3.0,74,0.00,,---,0.00,VWS V14.01,2013-01-28 09:46:00,
2013-01-28 05:01:00,20.7,14.0,30.35,West,270,2.0,4.0,75,0.00,,---,0.00,VWS V14.01,2013-01-28 10:01:00,
2013-01-28 05:16:00,21.7,15.0,30.35,West,264,2.0,5.0,75,0.00,,---,0.00,VWS V14.01,2013-01-28 10:16:00,
2013-01-28 05:31:00,21.8,15.4,30.35,West,263,5.0,5.0,76,0.00,,---,0.00,VWS V14.01,2013-01-28 10:31:00,
2013-01-28 05:46:00,22.2,15.2,30.35,West,261,3.0,6.0,74,0.00,,---,0.00,VWS V14.01,2013-01-28 10:46:00,
2013-01-28 06:01:00,22.2,15.5,30.36,West,261,3.0,5.0,75,0.00,,---,0.00,VWS V14.01,2013-01-28 11:01:00,
2013-01-28 06:16:00,22.3,15.6,30.35,West,261,4.0,6.0,75,0.00,,---,0.00,VWS V14.01,2013-01-28 11:16:00,
2013-01-28 06:31:00,22.4,15.7,30.35,West,271,2.0,5.0,75,0.00,,---,0.00,VWS V14.01,2013-01-28 11:31:00,
2013-01-28 06:46:00,22.4,16.3,30.35,West,271,3.0,7.0,77,0.00,,---,0.00,VWS V14.01,2013-01-28 11:46:00,
2013-01-28 07:01:00,22.1,16.3,30.35,West,281,2.0,5.0,78,0.00,,---,0.00,VWS V14.01,2013-01-28 12:01:00,
2013-01-28 07:16:00,21.9,15.5,30.35,West,277,4.0,4.0,76,0.00,,---,0.00,VWS V14.01,2013-01-28 12:16:00,
2013-01-28 07:31:00,21.7,14.7,30.35,West,267,4.0,6.0,74,0.00,,---,0.00,VWS V14.01,2013-01-28 12:31:00,
2013-01-28 07:46:00,21.8,15.4,30.35,West,266,3.0,4.0,76,0.00,,---,0.00,VWS V14.01,2013-01-28 12:46:00,
2013-01-28 08:01:00,22.6,15.9,30.36,West,267,5.0,6.0,75,0.00,,---,0.00,VWS V14.01,2013-01-28 13:01:00,
2013-01-28 08:16:00,23.6,16.5,30.36,West,264,3.0,7.0,74,0.00,,---,0.00,VWS V14.01,2013-01-28 13:16:00,
2013-01-28 08:31:00,24.3,16.3,30.35,West,277,2.0,6.0,71,0.00,,---,0.00,VWS V14.01,2013-01-28 13:31:00,
2013-01-28 08:46:00,25.0,15.9,30.35,West,274,2.0,5.0,68,0.00,,---,0.00,VWS V14.01,2013-01-28 13:46:00,
2013-01-28 09:01:00,26.0,16.2,30.35,WSW,242,3.0,7.0,66,0.00,,---,0.00,VWS V14.01,2013-01-28 14:01:00,
2013-01-28 09:16:00,26.6,16.4,30.35,WSW,257,6.0,8.0,65,0.00,,---,0.00,VWS V14.01,2013-01-28 14:16:00,
2013-01-28 09:31:00,27.5,16.9,30.35,West,279,6.0,9.0,64,0.00,,---,0.00,VWS V14.01,2013-01-28 14:31:00,
2013-01-28 09:46:00,27.6,17.0,30.35,WSW,246,6.0,9.0,64,0.00,,---,0.00,VWS V14.01,2013-01-28 14:46:00,
2013-01-28 10:01:00,28.1,16.8,30.35,WSW,238,4.0,8.0,62,0.00,,---,0.00,VWS V14.01,2013-01-28 15:01:00,
2013-01-28 10:16:00,28.3,17.0,30.35,West,260,4.0,8.0,62,0.00,,---,0.00,VWS V14.01,2013-01-28 15:16:00,
2013-01-28 10:31:00,28.8,16.3,30.34,WSW,248,7.0,9.0,59,0.00,,---,0.00,VWS V14.01,2013-01-28 15:31:00,
2013-01-28 10:46:00,29.6,16.2,30.34,SW,227,4.0,8.0,57,0.00,,---,0.00,VWS V14.01,2013-01-28 15:46:00,
2013-01-28 11:01:00,30.0,16.2,30.33,SW,229,3.0,8.0,56,0.00,,---,0.00,VWS V14.01,2013-01-28 16:01:00,
2013-01-28 11:16:00,30.1,14.6,30.32,WSW,247,2.0,7.0,52,0.00,,---,0.00,VWS V14.01,2013-01-28 16:16:00,
2013-01-28 11:31:00,30.2,13.8,30.31,SW,219,3.0,7.0,50,0.00,,---,0.00,VWS V14.01,2013-01-28 16:31:00,
2013-01-28 11:46:00,30.6,13.7,30.29,SSW,209,5.0,8.0,49,0.00,,---,0.00,VWS V14.01,2013-01-28 16:46:00,
2013-01-28 12:01:00,30.2,11.9,30.28,SW,227,2.0,7.0,46,0.00,,---,0.00,VWS V14.01,2013-01-28 17:01:00,
2013-01-28 12:16:00,30.5,9.6,30.27,SW,227,4.0,7.0,41,0.00,,---,0.00,VWS V14.01,2013-01-28 17:16:00,
2013-01-28 12:31:00,30.4,12.6,30.26,SSW,209,2.0,7.0,47,0.00,,---,0.00,VWS V14.01,2013-01-28 17:31:00,
2013-01-28 12:46:00,30.2,13.8,30.25,WSW,237,1.0,10.0,50,0.00,,---,0.00,VWS V14.01,2013-01-28 17:46:00,
2013-01-28 13:01:00,30.0,13.6,30.24,SW,229,6.0,8.0,50,0.00,,---,0.00,VWS V14.01,2013-01-28 18:01:00,
2013-01-28 13:16:00,30.4,12.6,30.23,SW,221,4.0,7.0,47,0.00,,---,0.00,VWS V14.01,2013-01-28 18:16:00,
2013-01-28 13:31:00,30.4,12.1,30.23,SW,222,3.0,7.0,46,0.00,,---,0.00,VWS V14.01,2013-01-28 18:31:00,
2013-01-28 13:46:00,29.6,11.4,30.22,WSW,241,1.0,6.0,46,0.00,,---,0.00,VWS V14.01,2013-01-28 18:46:00,
2013-01-28 14:01:00,30.1,12.8,30.20,WSW,237,1.0,5.0,48,0.00,,---,0.00,VWS V14.01,2013-01-28 19:01:00,
2013-01-28 14:16:00,30.7,13.4,30.20,SW,217,1.0,5.0,48,0.00,,---,0.00,VWS V14.01,2013-01-28 19:16:00,
2013-01-28 14:31:00,30.4,13.5,30.18,SW,217,1.0,4.0,49,0.00,,---,0.00,VWS V14.01,2013-01-28 19:31:00,
2013-01-28 14:46:00,29.5,13.2,30.17,SW,217,0.0,3.0,50,0.00,,---,0.00,VWS V14.01,2013-01-28 19:46:00,
2013-01-28 15:01:00,30.2,15.1,30.17,SW,217,0.0,0.0,53,0.00,,---,0.00,VWS V14.01,2013-01-28 20:01:00,
2013-01-28 15:16:00,30.7,16.9,30.16,SW,217,0.0,0.0,56,0.00,,---,0.00,VWS V14.01,2013-01-28 20:16:00,
2013-01-28 15:31:00,30.2,16.4,30.16,SW,217,0.0,0.0,56,0.00,,---,0.00,VWS V14.01,2013-01-28 20:31:00,
2013-01-28 15:46:00,29.8,16.8,30.15,SW,217,0.0,0.0,58,0.00,,---,0.00,VWS V14.01,2013-01-28 20:46:00,
2013-01-28 16:01:00,30.3,18.1,30.13,SW,217,0.0,0.0,60,0.00,,---,0.00,VWS V14.01,2013-01-28 21:01:00,
2013-01-28 16:16:00,30.2,21.3,30.12,SW,215,1.0,4.0,69,0.00,,---,0.00,VWS V14.01,2013-01-28 21:16:00,
2013-01-28 16:31:00,30.7,22.8,30.12,SW,215,0.0,2.0,72,0.00,,---,0.00,VWS V14.01,2013-01-28 21:31:00,
2013-01-28 16:46:00,30.7,23.1,30.11,SW,215,0.0,0.0,73,0.00,,---,0.00,VWS V14.01,2013-01-28 21:46:00,
2013-01-28 17:01:00,30.5,23.5,30.12,SW,216,0.0,0.0,75,0.00,,---,0.00,VWS V14.01,2013-01-28 22:01:00,
2013-01-28 17:16:00,30.1,23.5,30.11,SW,215,0.0,0.0,76,0.00,,---,0.00,VWS V14.01,2013-01-28 22:16:00,
2013-01-28 17:31:00,29.6,23.6,30.12,SW,216,0.0,0.0,78,0.00,,---,0.00,VWS V14.01,2013-01-28 22:31:00,
2013-01-28 17:46:00,29.2,24.1,30.11,SW,216,1.0,3.0,81,0.00,,---,0.00,VWS V14.01,2013-01-28 22:46:00,
2013-01-28 18:16:00,28.8,26.0,30.09,East,101,2.0,4.0,89,0.00,,---,0.00,VWS V14.01,2013-01-28 23:16:00,
2013-01-28 18:31:00,29.1,26.8,30.08,East,101,1.0,4.0,91,0.00,,---,0.00,VWS V14.01,2013-01-28 23:31:00,
2013-01-28 18:46:00,30.0,28.0,30.06,SE,130,6.0,11.0,92,0.00,,---,0.00,VWS V14.01,2013-01-28 23:46:00,
2013-01-28 19:01:00,30.5,28.7,30.06,SE,140,10.0,14.0,93,0.00,,---,0.00,VWS V14.01,2013-01-29 00:01:00,
2013-01-28 19:16:00,30.8,29.3,30.04,ESE,120,8.0,14.0,94,0.00,,---,0.00,VWS V14.01,2013-01-29 00:16:00,
2013-01-28 19:31:00,31.4,29.9,30.03,SE,128,8.0,13.0,94,0.00,,---,0.00,VWS V14.01,2013-01-29 00:31:00,
2013-01-28 19:46:00,31.8,30.5,30.03,SE,136,9.0,13.0,95,0.00,,---,0.00,VWS V14.01,2013-01-29 00:46:00,
2013-01-28 20:01:00,32.2,30.9,30.01,SSE,154,7.0,15.0,95,0.00,,---,0.00,VWS V14.01,2013-01-29 01:01:00,
2013-01-28 20:16:00,32.6,31.3,30.01,SE,141,9.0,14.0,95,0.00,,---,0.00,VWS V14.01,2013-01-29 01:16:00,
2013-01-28 20:31:00,33.0,31.7,29.99,SE,141,13.0,15.0,95,0.00,,---,0.00,VWS V14.01,2013-01-29 01:31:00,
2013-01-28 20:46:00,33.4,32.1,29.99,SE,144,11.0,14.0,95,0.00,,---,0.00,VWS V14.01,2013-01-29 01:46:00,
2013-01-28 21:01:00,33.4,32.1,29.98,SSE,154,8.0,14.0,95,0.00,,---,0.00,VWS V14.01,2013-01-29 02:01:00,
2013-01-28 21:16:00,33.7,32.7,29.99,SSE,149,9.0,12.0,96,0.00,,---,0.00,VWS V14.01,2013-01-29 02:16:00,
2013-01-28 21:31:00,33.9,32.6,29.99,SSE,150,7.0,14.0,95,0.00,,---,0.00,VWS V14.01,2013-01-29 02:31:00,
2013-01-28 21:46:00,34.0,33.0,29.97,SE,146,8.0,11.0,96,0.00,,---,0.00,VWS V14.01,2013-01-29 02:46:00,
2013-01-28 22:01:00,34.3,33.3,29.97,SSE,151,6.0,11.0,96,0.00,,---,0.00,VWS V14.01,2013-01-29 03:01:00,
2013-01-28 22:16:00,34.6,33.6,29.97,SE,136,7.0,9.0,96,0.00,,---,0.00,VWS V14.01,2013-01-29 03:16:00,
2013-01-28 22:31:00,34.5,33.5,29.96,SSE,150,5.0,11.0,96,0.00,,---,0.00,VWS V14.01,2013-01-29 03:31:00,
2013-01-28 22:46:00,34.8,33.8,29.94,SE,134,7.0,9.0,96,0.00,,---,0.00,VWS V14.01,2013-01-29 03:46:00,
2013-01-28 23:01:00,35.0,34.0,29.94,SE,140,8.0,11.0,96,0.01,,---,0.01,VWS V14.01,2013-01-29 04:01:00,
2013-01-28 23:16:00,35.3,34.3,29.95,SE,136,4.0,9.0,96,0.01,,---,0.01,VWS V14.01,2013-01-29 04:16:00,
2013-01-28 23:31:00,35.3,34.3,29.95,SE,136,2.0,6.0,96,0.01,,---,0.01,VWS V14.01,2013-01-29 04:31:00,
2013-01-28 23:46:00,35.7,34.7,29.94,SE,134,2.0,6.0,96,0.01,,---,0.01,VWS V14.01,2013-01-29 04:46:00,